TimePST,TemperatureF,Dew PointF,Humidity,Sea Level PressureIn,VisibilityMPH,Wind Direction,Wind SpeedMPH,Gust SpeedMPH,PrecipitationIn,Events,Conditions,WindDirDegrees,DateUTC
12:53 AM,39.0,30.0,70,29.96,10.0,Variable,3.5,-,N/A,,Overcast,0,2012-12-19 08:53:00
1:53 AM,39.0,28.9,67,29.94,10.0,ESE,5.8,-,N/A,,Overcast,120,2012-12-19 09:53:00
2:53 AM,39.9,28.0,63,29.92,10.0,ESE,3.5,-,N/A,,Overcast,120,2012-12-19 10:53:00
3:37 AM,39.2,30.2,70,29.86,10.0,East,5.8,-,0.00,Rain,Light Rain,100,2012-12-19 11:37:00
3:53 AM,39.9,30.0,68,29.86,10.0,ESE,4.6,-,0.00,Rain,Light Rain,110,2012-12-19 11:53:00
4:53 AM,37.0,32.0,82,29.84,8.0,ESE,6.9,-,0.01,Rain,Light Rain,110,2012-12-19 12:53:00
5:17 AM,37.4,33.8,87,29.81,10.0,East,8.1,-,0.00,Rain,Light Rain,100,2012-12-19 13:17:00
5:53 AM,37.9,33.1,83,29.81,10.0,ESE,3.5,-,0.01,,Overcast,110,2012-12-19 13:53:00
6:53 AM,39.0,33.1,79,29.79,10.0,SSE,4.6,-,0.00,Rain,Light Rain,160,2012-12-19 14:53:00
7:53 AM,39.9,34.0,79,29.77,10.0,East,9.2,-,0.00,Rain,Light Rain,100,2012-12-19 15:53:00
8:53 AM,39.9,34.0,79,29.75,10.0,Variable,4.6,17.3,0.00,,Overcast,0,2012-12-19 16:53:00
9:53 AM,41.0,34.0,76,29.73,10.0,Variable,3.5,-,N/A,,Overcast,0,2012-12-19 17:53:00
10:53 AM,42.1,33.1,70,29.70,10.0,ESE,9.2,-,N/A,,Overcast,110,2012-12-19 18:53:00
11:53 AM,44.1,34.0,68,29.68,10.0,ESE,8.1,16.1,N/A,,Overcast,110,2012-12-19 19:53:00
12:53 PM,48.9,34.0,56,29.64,10.0,SE,6.9,27.6,0.00,,Overcast,140,2012-12-19 20:53:00
1:53 PM,50.0,35.1,57,29.62,10.0,SSE,11.5,21.9,0.00,,Overcast,150,2012-12-19 21:53:00
2:53 PM,48.9,37.9,66,29.65,4.0,South,13.8,25.3,0.03,Rain,Rain,180,2012-12-19 22:53:00
3:53 PM,46.9,39.0,74,29.66,9.0,SSE,5.8,-,0.07,Rain,Light Rain,150,2012-12-19 23:53:00
4:53 PM,46.0,39.0,76,29.67,9.0,South,10.4,-,0.03,Rain,Light Rain,170,2012-12-20 00:53:00
5:53 PM,45.0,39.9,82,29.68,10.0,SE,8.1,17.3,0.04,Rain,Light Rain,140,2012-12-20 01:53:00
6:02 PM,44.6,39.2,81,29.67,10.0,SSE,8.1,17.3,0.00,Rain,Light Rain,150,2012-12-20 02:02:00
6:53 PM,45.0,39.9,82,29.69,7.0,SE,6.9,17.3,0.06,Rain,Light Rain,140,2012-12-20 02:53:00
7:53 PM,43.0,39.0,86,29.68,5.0,ESE,6.9,17.3,0.04,Rain,Rain,120,2012-12-20 03:53:00
8:53 PM,43.0,39.9,89,29.66,8.0,ESE,10.4,-,0.07,Rain,Light Rain,110,2012-12-20 04:53:00
9:53 PM,43.0,39.9,89,29.64,10.0,ESE,8.1,-,0.03,Rain,Light Rain,110,2012-12-20 05:53:00
10:53 PM,42.1,41.0,96,29.63,6.0,Variable,3.5,-,0.08,Rain,Rain,0,2012-12-20 06:53:00
11:53 PM,43.0,41.0,93,29.58,10.0,Calm,Calm,-,0.02,Rain,Light Rain,0,2012-12-20 07:53:00